Location: Acheville
(50.3840°N, 2.8827°E)
Time: 10:56:04
(UTC+00:00)

Cosmos 2344 - Pass Details

Date: 24 October 2021
Orbit: 1233 x 3009 km, 63.3° (Epoch: 30 November)

Event Time Altitude Azimuth Distance (km) Brightness Sun altitude
Rises 18:37:48 0° 316° (NW) 4,473 7.2 -19.6°
Reaches altitude 10° 18:40:23 10° 315° (NW) 3,623 6.7 -20.0°
Maximum altitude 18:49:20 76° 232° (SW) 1,864 4.4 -21.4°
Drops below altitude 10° 19:01:53 10° 150° (SSE) 4,942 6.3 -23.4°
Enters shadow 19:04:04 - 149° (SSE) 5,600 6.6 -23.8°
